{"data":{"norad_id":56904,"epoch":"2026-09-20T17:09:54.124992Z","epoch_age_seconds":99061,"freshness":"FRESH","line1":"1 56904U 23083AE  26263.71520978 -.00000088  00000+0  63143-5 0  9996","line2":"2 56904  43.0040  49.3750 0001292 266.4167  93.6537 15.27576317181626","mean_motion":15.27576317,"eccentricity":0.0001292,"inclination_deg":43.004,"raan_deg":49.375,"arg_perigee_deg":266.4167,"mean_anomaly_deg":93.6537,"bstar":6.3143e-6,"rev_number":18162,"period_min":94.266975991616,"perigee_km":482.1736576203,"apogee_km":483.94659095722,"semimajor_km":6861.1971242888,"source":"CELESTRAK","updated_at":"2026-09-21T09:00:33.525349Z"}}